Regional Weather Roundup
Issued by NWS Cleveland, OH

Home | Current Version | Previous Version | Graphics & Text | Print | Product List | Glossary On
Versions: 1 2 3 4 5 6 7 8 9 10 11 12 13 14 15 16 17 18 19 20 21 22 23 24 25 26 27 28 29 30 31 32 33 34 35 36 37 38 39 40 41 42 43 44 45 46 47 48 49 50
000
ASUS41 KCLE 230110
RWRCLE
OHIO REGIONAL WEATHER ROUNDUP
NATIONAL WEATHER SERVICE CLEVELAND, OH
900 PM EDT MON SEP 22 2014

NOTE: "FAIR" INDICATES FEW OR NO CLOUDS BELOW 12,000 FEET WITH NO
SIGNIFICANT WEATHER AND/OR OBSTRUCTIONS TO VISIBILITY.

OHZ001>008-015>018-024>027-034-035-043-044-230200-
   NORTHWEST OHIO

CITY           SKY/WX    TMP DP  RH WIND       PRES   REMARKS
DEFIANCE       CLEAR    N/A N/A N/A CALM      30.25R
FINDLAY        CLEAR     54  43  66 MISG      30.23R
TOLEDO EXPRESS CLEAR     49  45  86 CALM      30.24R
TOLEDO EXEC    CLEAR     56  41  57 CALM      30.25R
LIMA           CLEAR     53  44  71 CALM      30.24R
$$

OHZ009>014-019>023-028>033-038-089-230200-
   NORTHEAST OHIO

CITY           SKY/WX    TMP DP  RH WIND       PRES   REMARKS
CLE-HOPKINS    CLEAR     49  43  80 S6        30.27R
CLE-LAKEFRONT  PTCLDY    54  43  66 S5        30.24R
CUY CO. ARPT   PTCLDY    48  46  93 CALM      30.26
LORAIN-ELYRIA  CLEAR     50  44  80 CALM      30.26R
ASHTABULA      CLEAR     46  43  89 CALM      30.25R
AKRON-CANTON   CLEAR     48  41  76 CALM      30.25R
WOOSTER        CLEAR     45  41  86 CALM      30.26R
MANSFIELD      CLEAR     50  41  71 CALM      30.25R
YOUNGSTOWN     PTCLDY    46  43  89 CALM      30.25R
$$

OHZ042-051>053-060>062-070>072-077>081-230200-
  SOUTHWEST OHIO

CITY           SKY/WX    TMP DP  RH WIND       PRES   REMARKS
CINC-COVINGTON CLEAR     56  43  61 NW3       30.24R
CINC-LUNKEN    CLEAR     51  47  86 CALM      30.25R
HAMILTON       CLEAR     49  47  93 CALM      30.25R
DAYTON         CLEAR     54  42  64 CALM      30.26R
WRIGHT-PAT AFB CLEAR     56  43  61 W2        30.25R
DAYTON GENERAL CLEAR     54  43  66 NE5       30.24R
WILMINGTON     CLEAR     55  40  56 N5        30.24R
$$

OHZ036-037-039>041-045>050-054>059-063>069-073>076-082>088-230200-
  CENTRAL AND SOUTHEAST OHIO

CITY           SKY/WX    TMP DP  RH WIND       PRES   REMARKS
COLUMBUS       CLEAR     56  42  59 CALM      30.24R
OSU AIRPORT    CLEAR     51  41  68 NW6       30.24R
BOLTON FIELD   CLEAR     46  43  91 CALM      30.24R
RICKENBACK AFB CLEAR     52  41  66 CALM      30.23R
NEWARK         CLEAR     47  43  86 CALM      30.25R
MARION         CLEAR     51  41  68 CALM      30.25R
LANCASTER      CLEAR     46  42  86 CALM      30.25R
ZANESVILLE     CLEAR     52  42  69 CALM      30.25R
NEW PHILLY     CLEAR     46  43  89 CALM      30.26R
$$


USA.gov is the U.S. government's official web portal to all federal, state and local government web resources and services.